Weather History for KTMK - March, 2013

Change the Weather History Date:

Tuesday, March 26, 2013

  Actual Average (KMMV) Record (KMMV)
Temperature  
Mean Temperature 44 °F 48 °F  
Max Temperature 51 °F 58 °F 81 °F (1923)
Min Temperature 37 °F 38 °F 15 °F (1920)
Degree Days  
Heating Degree Days 21 17  
Month to date heating degree days 488  
Since 1 July heating degree days 3867  
Cooling Degree Days 0 0  
Month to date cooling degree days 0  
Year to date cooling degree days 0  
Moisture  
Dew Point 44 °F    
Average Humidity 96    
Maximum Humidity 100    
Minimum Humidity 82    
Precipitation  
Precipitation 0.03 in 0.12 in 1.56 in (1916)
Month to date precipitation 3.44  
Year to date precipitation 13.98  
Sea Level Pressure  
Sea Level Pressure 30.01 in    
Wind  
Wind Speed 1 mph (West)    
Max Wind Speed 6 mph    
Max Gust Speed -    
Visibility 7 miles    
Events Fog , Rain    
T = Trace of Precipitation, MM = Missing Value Source: NWS Daily Summary

Daily Weather History Graph

Daily Weather History Graph

Search for Another Location

Airport or City:

Trip Planner

Search our weather history database for the weather conditions in past years. The results will help you decide how hot, cold, wet, or windy it might be!

Date:

Astronomy

Mar. 26, 2013 Rise Set
Actual Time 8:06 AM MDT 8:36 PM MDT
Civil Twilight 7:36 AM MDT 9:05 PM MDT
Nautical Twilight 7:01 AM MDT 9:40 PM MDT
Astronomical Twilight 6:25 AM MDT 10:17 PM MDT
Moon 8:20 PM MDT (3/26) 7:26 AM MDT (3/26)
Length of Visible Light 13h 29m
Length of Day
12h 29m
Waxing Gibbous, 99% of the Moon is Illuminated
Mar 26
Waxing Gibbous
Mar 27
Full
Apr 2
Last Quarter
Apr 10
New
Apr 18
First Quarter

Hourly Weather History & Observations

Time (MDT) Temp. Windchill Dew Point Humidity Pressure Visibility Wind Dir Wind Speed Gust Speed Precip Events Conditions
12:15 AM 44.6 °F - 42.8 °F 93% 30.00 in 4.0 mi Calm Calm - N/A   Clear
12:35 AM 44.6 °F - 44.6 °F 100% 30.00 in 3.0 mi Calm Calm - N/A   Clear
12:55 AM 42.8 °F 40.1 °F 41.0 °F 93% 30.01 in 1.0 mi South 4.6 mph - N/A   Mist
1:15 AM 42.8 °F - 42.8 °F 100% 30.00 in 0.2 mi Calm Calm - 0.01 in Fog Fog
1:35 AM 42.8 °F - 42.8 °F 100% 30.00 in 4.0 mi Calm Calm - 0.01 in   Mostly Cloudy
1:55 AM 41.0 °F - 41.0 °F 100% 30.01 in 0.8 mi Calm Calm - 0.01 in   Mostly Cloudy
2:15 AM 39.2 °F 37.0 °F 39.2 °F 100% 30.00 in 0.5 mi SE 3.5 mph - N/A Fog Fog
2:35 AM 39.2 °F 37.0 °F 39.2 °F 100% 30.00 in 7.0 mi SE 3.5 mph - N/A   Scattered Clouds
2:55 AM 41.0 °F - 41.0 °F 100% 30.01 in 10.0 mi Calm Calm - N/A   Clear
3:15 AM 37.4 °F 34.9 °F 37.4 °F 100% 30.00 in 2.0 mi South 3.5 mph - N/A   Clear
3:35 AM 37.4 °F - 37.4 °F 100% 30.01 in 0.5 mi Calm Calm - N/A Fog Fog
3:55 AM 37.4 °F - 37.4 °F 100% 30.01 in 0.8 mi Calm Calm - N/A   Overcast
4:15 AM 37.4 °F 33.8 °F 37.4 °F 100% 30.01 in 7.0 mi SE 4.6 mph - N/A   Scattered Clouds
4:35 AM 37.4 °F 34.9 °F 37.4 °F 100% 30.00 in 7.0 mi SSE 3.5 mph - N/A   Clear
4:55 AM 37.4 °F 34.9 °F 37.4 °F 100% 30.00 in 4.0 mi South 3.5 mph - N/A   Clear
5:15 AM 37.4 °F 33.8 °F 37.4 °F 100% 30.00 in 7.0 mi SE 4.6 mph - N/A   Scattered Clouds
5:35 AM 37.4 °F 33.8 °F 37.4 °F 100% 30.00 in 10.0 mi SE 4.6 mph - N/A   Mostly Cloudy
5:55 AM 39.2 °F - 39.2 °F 100% 30.01 in 10.0 mi Calm Calm - N/A   Overcast
6:15 AM 39.2 °F - 39.2 °F 100% 30.01 in 10.0 mi Calm Calm - N/A   Overcast
6:35 AM 37.4 °F - 37.4 °F 100% 30.02 in 7.0 mi Calm Calm - N/A   Overcast
6:55 AM 39.2 °F - 39.2 °F 100% 30.02 in 7.0 mi Calm Calm - N/A   Light Drizzle
7:15 AM 41.0 °F - 41.0 °F 100% 30.01 in 10.0 mi Calm Calm - N/A   Light Drizzle
7:35 AM 41.0 °F - 41.0 °F 100% 30.02 in 10.0 mi Calm Calm - N/A   Overcast
7:55 AM 39.2 °F - 39.2 °F 100% 30.02 in 10.0 mi Calm Calm - N/A Rain Light Rain
8:15 AM 41.0 °F - 41.0 °F 100% 30.02 in 10.0 mi Calm Calm - N/A   Overcast
8:35 AM 41.0 °F - 41.0 °F 100% 30.02 in 10.0 mi Calm Calm - N/A   Overcast
8:55 AM 41.0 °F - 41.0 °F 100% 30.02 in 7.0 mi Calm Calm - N/A   Overcast
9:15 AM 41.0 °F - 41.0 °F 100% 30.02 in 7.0 mi Calm Calm - N/A Rain Light Rain
9:35 AM 41.0 °F - 41.0 °F 100% 30.02 in 7.0 mi Calm Calm - N/A Rain Light Rain
9:55 AM 42.8 °F - 42.8 °F 100% 30.03 in 7.0 mi Calm Calm - N/A Rain Light Rain
10:15 AM 42.8 °F - 42.8 °F 100% 30.03 in 7.0 mi Calm Calm - N/A Rain Light Rain
10:35 AM 44.6 °F - 44.6 °F 100% 30.03 in 7.0 mi Calm Calm - N/A Rain Light Rain
10:55 AM 44.6 °F - 44.6 °F 100% 30.03 in 10.0 mi Calm Calm - N/A   Light Drizzle
11:15 AM 44.6 °F - 44.6 °F 100% 30.03 in 10.0 mi Calm Calm - 0.01 in   Overcast
11:35 AM 46.4 °F - 46.4 °F 100% 30.03 in 10.0 mi Calm Calm - 0.01 in Rain Light Rain
11:55 AM 46.4 °F - 46.4 °F 100% 30.03 in 10.0 mi Calm Calm - 0.01 in   Light Drizzle
12:15 PM 48.2 °F - 48.2 °F 100% 30.04 in 10.0 mi Calm Calm - N/A   Light Drizzle
12:35 PM 48.2 °F - 46.4 °F 93% 30.04 in 10.0 mi Calm Calm - N/A   Light Drizzle
12:55 PM 50.0 °F - 46.4 °F 87% 30.04 in 10.0 mi Calm Calm - N/A Rain Light Rain
1:15 PM 50.0 °F - 46.4 °F 87% 30.04 in 10.0 mi Calm Calm - N/A   Light Drizzle
1:35 PM 50.0 °F - 46.4 °F 87% 30.03 in 10.0 mi Calm Calm - N/A Rain Light Rain
1:55 PM 51.8 °F - 46.4 °F 82% 30.03 in 10.0 mi Calm Calm - N/A   Light Drizzle
2:15 PM 51.8 °F - 46.4 °F 82% 30.03 in 10.0 mi Calm Calm - N/A   Overcast
2:35 PM 51.8 °F - 46.4 °F 82% 30.03 in 10.0 mi Calm Calm - N/A   Overcast
2:55 PM 51.8 °F - 48.2 °F 88% 30.03 in 10.0 mi WNW 3.5 mph - N/A   Light Drizzle
3:15 PM 51.8 °F - 46.4 °F 82% 30.02 in 10.0 mi WNW 3.5 mph - N/A Rain Light Rain
3:35 PM 51.8 °F - 46.4 °F 82% 30.02 in 10.0 mi Calm Calm - N/A Rain Light Rain
3:55 PM 51.8 °F - 48.2 °F 88% 30.02 in 10.0 mi WNW 3.5 mph - N/A   Light Drizzle
4:15 PM 51.8 °F - 48.2 °F 88% 30.01 in 10.0 mi WNW 4.6 mph - N/A   Overcast
4:35 PM 51.8 °F - 48.2 °F 88% 30.01 in 10.0 mi WNW 4.6 mph - N/A   Light Drizzle
4:55 PM 51.8 °F - 48.2 °F 88% 30.01 in 7.0 mi WNW 4.6 mph - N/A Rain Light Rain
5:15 PM 51.8 °F - 48.2 °F 88% 30.00 in 7.0 mi NW 4.6 mph - N/A   Light Drizzle
5:35 PM 50.0 °F - 48.2 °F 94% 30.00 in 7.0 mi NW 5.8 mph - N/A   Light Drizzle
5:55 PM 50.0 °F - 48.2 °F 94% 30.00 in 10.0 mi NW 4.6 mph - N/A   Light Drizzle
6:15 PM 50.0 °F - 48.2 °F 94% 30.00 in 10.0 mi NNW 4.6 mph - N/A Rain Light Rain
6:35 PM 50.0 °F - 48.2 °F 94% 30.00 in 7.0 mi NW 4.6 mph - N/A   Drizzle
6:55 PM 50.0 °F - 48.2 °F 94% 30.00 in 7.0 mi NNW 4.6 mph - N/A   Light Drizzle
7:15 PM 50.0 °F - 48.2 °F 94% 30.00 in 7.0 mi Calm Calm - N/A   Light Drizzle
7:35 PM 50.0 °F - 48.2 °F 94% 30.00 in 4.0 mi Calm Calm - N/A   Light Drizzle
7:55 PM 50.0 °F - 48.2 °F 94% 30.00 in 2.0 mi Calm Calm - N/A   Light Drizzle
8:15 PM 50.0 °F - 48.2 °F 94% 29.99 in 2.5 mi Calm Calm - N/A   Light Drizzle
8:35 PM 48.2 °F - 48.2 °F 100% 29.99 in 2.0 mi Calm Calm - N/A   Light Drizzle
8:55 PM 48.2 °F - 48.2 °F 100% 29.99 in 7.0 mi Calm Calm - N/A   Overcast
9:15 PM 48.2 °F - 48.2 °F 100% 29.99 in 10.0 mi Calm Calm - N/A   Overcast
9:35 PM 48.2 °F - 48.2 °F 100% 29.99 in 7.0 mi Calm Calm - N/A   Overcast
9:55 PM 48.2 °F - 48.2 °F 100% 29.99 in 4.0 mi Calm Calm - N/A   Light Drizzle
10:15 PM 48.2 °F - 48.2 °F 100% 29.99 in 7.0 mi Calm Calm - N/A   Overcast
10:35 PM 48.2 °F - 48.2 °F 100% 29.99 in 7.0 mi Calm Calm - N/A   Light Drizzle
10:55 PM 48.2 °F - 48.2 °F 100% 29.99 in 7.0 mi Calm Calm - 0.01 in   Light Drizzle
11:15 PM 48.2 °F - 48.2 °F 100% 29.99 in 10.0 mi Calm Calm - N/A   Overcast
11:35 PM 48.2 °F - 48.2 °F 100% 29.99 in 10.0 mi Calm Calm - N/A   Overcast
11:55 PM 48.2 °F - 48.2 °F 100% 29.98 in 7.0 mi Calm Calm - N/A   Overcast